Location: ??
(35.5990°N, 139.7298°E)
Time: 14:14:42
(UTC+00:00)

Cosmos 1656 Rocket - Pass Details

Date: 07 June 2020
Orbit: 797 x 845 km, 71.1° (Epoch: 13 July)

Event Time Altitude Azimuth Distance (km) Brightness Sun altitude
Exits shadow 11:26:35 19° 167° (SSE) 1,900 5.0 -15.8°
Maximum altitude 11:30:14 42° 105° (ESE) 1,164 4.0 -16.3°
Drops below altitude 10° 11:35:28 10° 36° (NE) 2,430 6.2 -17.1°
Sets 11:37:59 0° 30° (NNE) 3,358 7.0 -17.4°
